Showing default

HERMES-6, 63489

Orbit data source: Space-Track

HERMES-6, 63489 is a payload satellite owned by ASI (IT) in SSO that was launched on Sat, 15 Mar 2025 UTC via an FALCON 9 launch vehicle from the Air Force Western Test Range (AFWTR). Payload-class satellites include a variety of spacecraft equipped with specific instruments for various scientific and technological missions. These include communications satellites like Starlink; space stations such as the ISS; scientific satellites like the Hubble; Earth observation satellites from companies like Planet Labs, Umbra, and HawkEye 360; GPS; miniature CubeSats for education and research; and military/defense satellites.

Loading next visibility...
Identifier
63489, 2025-052BK
Orbit
SSO
Country
Flag of ITIT
Related business
Manufacturer
MILANP/INAFI
Mission
Operational Civil Astronomy
Bus & Motor
CUBESAT 3U, Unknown motor
Mass
5 kg wet, 5 kg dry
Launch date (UTC)
2025-03-15 (7 months ago)
Launch vehicle
FALCON 9
Launch site
Air Force Western Test Range (AFWTR)
Object type
Payload
Rocket body
Debris
Shape & HBR
Box, 1.1 m
Radar Cross Section
0.035 m², Medium (>0.1 m² and < 1m²)

Expand to show TLE details & history
Last TLE update: 17 hours ago

TLE from 17 hours ago
0 HERMES-6
1 63489U 25052BK  25287.17359431  .00008287  00000-0  40096-3 0  9998
2 63489  97.4185 178.5879 0005692 326.5080  33.5794 15.18824112 32433
Epoch: 2025-10-14T04:09Z
TLE epoch observation values (Epoch: 2025-10-14T04:09:58.548Z)
Latitude
Longitude
93.12813°
Altitude
509.215 km
Speed
7.611 km/s
True Right ascension
11h 54m 21s
True Declination
0° 00' 00"
Sunlit
Object was in daylight at epoch
Visualization orbit readout
Latitude
Unknown
Longitude
Unknown
Altitude
Unknown
Speed
Unknown
Apparent Right ascension
Unknown
Apparent Declination
Unknown
Sunlit
N/A
Visualization observer readout
Local Sidereal Time
15:54:46
Azimuth
Unknown
Elevation
Unknown
Doppler factor
Unknown
Orbital elements
Apogee altitude
510.28 km
Perigee altitude
502.443 km
Semi-major axis
6,884.498 km
Eccentricity
0.00057
Inclination
97.4185°
RAAN
178.5879°
Arg. of periapsis
326.508°
True anomaly
33.6155°
Mean anomaly
33.5794°
Eccentric anomaly
33.59745°
Mean motion
3.79957 °/min
Orbital period
94.75 mins
BSTAR
0.00040096
Loading maneuver chart data...
Computing Atmospheric mass density...
Loading historical data...
Loading historical data...
Loading historical data...
Loading historical data...
Loading historical data...
Loading historical data...
Loading historical data...

Documentation

Showing up to 5 results
|